Overview Statistics Trail Chart Weather Telemetry Raw packets
 

This is the latest recevied weather packets stored in our database for station/object K1RFS. If no packets are shown the sender has not sent any weather packets the latest 10 day(s).

<< 86 87 88 89 90 91 92 >>
Time Temp. Humidity Pressure Rain* Wind** Luminosity Snow
1788061627 18.89° C 67% 1002.6 hPa 0 mm - 0 W/m² -
1788061327 18.89° C 62% 1002.6 hPa 0 mm - 0 W/m² -
1788061023 18.89° C 63% 1001.8 hPa 0 mm - 0 W/m² -
1788060723 18.89° C 60% 1002 hPa 0 mm - 0 W/m² -
1788060423 18.89° C 62% 1002.2 hPa 0 mm - 0 W/m² -
1788060118 18.33° C 63% 1001.6 hPa 0 mm - 0 W/m² -
1788059813 18.33° C 65% 1001.4 hPa 0 mm - 0 W/m² -
1788059508 17.78° C 67% 1001.5 hPa 0 mm - 0 W/m² -
1788059204 17.78° C 66% 1001 hPa 0 mm - 0 W/m² -
1788058899 17.22° C 75% 1000.8 hPa 0 mm - 0 W/m² -
1788058597 17.22° C 76% 1001 hPa 0 mm - 0 W/m² -
1788058292 17.22° C 75% 1001.2 hPa 0 mm - 0 W/m² -
1788057987 17.22° C 75% 1001 hPa 0 mm - 0 W/m² -
1788057686 17.22° C 75% 1000.7 hPa 1.78 mm - 0 W/m² -
1788057384 17.22° C 76% 1000.6 hPa 1.78 mm - 0 W/m² -
1788057079 17.78° C 76% 1000.7 hPa 0 mm - 0 W/m² -
1788056774 17.78° C 75% 1000.6 hPa 0 mm - 0 W/m² -
1788056469 17.78° C 77% 1000.7 hPa 0 mm - 0 W/m² -
1788056163 17.78° C 78% 1000.9 hPa 0 mm - 0 W/m² -
1788055858 17.78° C 78% 1001.5 hPa 0 mm - 0 W/m² -
1788055557 18.33° C 78% 1001.3 hPa 0 mm - 1 W/m² -
1788055253 17.78° C 77% 1000.8 hPa 0 mm - 2 W/m² -
1788054952 18.33° C 77% 1000.8 hPa 0 mm - 3 W/m² -
1788054649 18.33° C 76% 1001.3 hPa 0 mm - 4 W/m² -
1788054344 18.33° C 78% 1001.7 hPa 0 mm - 5 W/m² -

* Rain latest hour (hover to see other rain measurements)
** Current wind speed in m/s (hover to see current wind gust speed)